1090 visiteurs
Prévisions de votre ville :
Vigilance : 86 départements Mise à jour le 08/12/2019 à 16:17 - Voir la carte

Paris Roissy CDG (95380) le 08/12/2019 à 22:00 Choisir station

8.5°C 74 % SO Rafales 46 km/h
Vit. moyenne 28 kmh/h

Relevés météo quotidiens pour la station de :

UTC
S: Synop
M: Metar
Loc T°C
(°C)
Td
(°C)
HR
(%)
Vis
(km)
Néb
(octa)
Vent
(km/h)
Pression
(mb)
Précipitations
(mm)
Temps
              MOY
10 min
DIR RAF 1h MESURE VAR SUR 3h    
S 00 h 02h 23.3 15.4 61 20 - 6 9 1014.8 +0.7/3h 0.0/6h - 0.0/3h -
S 01 h 03h 23.1 15.7 63 20 - 7 11 1014.7 0.0/3h 0.0/1h -
S 02 h 04h 22.4 15.3 64 20 - 4 6 1014.8 0.0/3h 0.0/1h -
S 03 h 05h 22.9 15.7 64 20 - 4 6 1014.9 0.0/3h 0.0/3h -
S 04 h 06h 22.5 15.8 66 20 - 6 11 1015.4 +0.7/3h 0.0/1h -
S 05 h 07h 23.2 16.0 64 20 - 7 15 1015.5 +0.7/3h 0.0/1h -
S 06 h 08h 25.4 16.3 57 19 - 9 13 1015.5 +0.8/3h 0.0/12h - 0.0/3h - 0.0/24h -
S 07 h 09h 28.0 16.3 49 19 - 9 15 1015.2 +0.3/3h 0.0/1h -
S 08 h 10h 31.5 15.9 39 19 - 9 15 1015.0 +0.3/3h 0.0/1h -
S 09 h 11h 34.9 14.8 30 18 - 11 17 1014.4 -0.2/3h 0.0/3h -
S 10 h 12h 36.9 11.7 22 19 - 7 17 1014.0 -0.4/3h 0.0/1h -
S 11 h 13h 38.4 11.5 20 19 - 6 15 1013.5 -0.9/3h 0.0/1h -
S 12 h 14h 38.9 12.6 21 20 - 4 11 1012.9 -1.1/3h 0.0/6h - 0.0/3h -
S 13 h 15h 39.7 11.8 19 19 - 7 22 1012.2 -1.5/3h 0.0/1h -
S 14 h 16h 39.9 11.9 19 18 - 20 33 1011.7 -1.6/3h 0.0/1h -
S 15 h 17h 41.0 9.2 15 19 - 15 31 1011.3 -1.4/3h 0.0/3h -
S 16 h 18h 40.3 10.6 17 19 - 15 24 1010.9 -1.3/3h 0.0/1h -
S 17 h 19h 39.3 10.6 18 20 - 6 11 1011.0 -0.7/3h 0.0/1h -
S 18 h 20h 34.7 13.5 28 19 - - - 13 1011.8 0.0/3h 0.0/12h - 0.0/3h -
S 19 h 21h 33.2 12.8 29 17 - 13 37 1013.4 +1.9/3h 0.0/1h -
S 20 h 22h 31.5 13.7 34 18 - 4 24 1013.3 +1.5/3h 0.0/1h -
S 21 h 23h 29.8 14.7 40 20 - 6 13 1013.4 +1.1/3h 0.0/3h -
S 22 h 00h 27.7 16.0 49 20 - 6 9 1013.6 -0.3/3h 0.0/1h -
S 23 h 01h 26.5 16.4 54 20 - 4 9 1013.7 0.0/3h 0.0/1h -
evolution des temperatures
cumul des precipitations
vent moyen et rafales
pression atmospherique

Un tiret (-) signifie que les données ne sont pas disponibles.

Passez la souris sur les pictos temps pour avoir plus de précisions. Passez les flèches sur l'icône de la direction du vent pour voir la direction précise en degrés.

Les données de l'heure en cours sont disponibles à partir de H+15 minutes.


S signifie station Synop, plus complète qu'une station Metar (M). Il y a +1h de différence entre l'heure UTC et l'heure légale en hiver et +2h en été.

Td est la mesure du point de rosée.

HR est l'humidité relative/p>

Vis est la visibilité

Néb est la nébulosité du ciel (couverture nuageuse) exprimée en octas (de 0/8 à 8/8).

Vent moy 10 min donne le vent moyen sur les 10 minutes qui précèdent le relevé.

Vent raf 1h donne la rafale maximale mesurée dans l'heure qui précède le relevé.


Les données les plus anciennes remontent à avril 2014.

Les données présentées sur cette page proviennent des stations météo officielles. Les relevés sont effectués aux normes en vigueur (anémomètre à 10m de haut, thermomètre sous abri normalisé à 2m du sol...)

Météo 60 décline toute responsabilité en cas d'absence de données, d'erreurs, de mauvaise utilisation ou interprétation et n'est pas habilité à fournir des certificats intempéries.